Location: Unspecified
(0.0000°N, 0.0000°E)
Time: 00:25:46
(UTC+00:00)

Explorer 7 - All Passes

Search period start: 23 January 2017 00:00
Search period end: 02 February 2017 00:00
Orbit: 486 x 685 km, 50.3° (Epoch: 22 January)

Date Brightness Start Highest point End Pass type
(mag) Time Alt. Az. Time Alt. Az. Time Alt. Az.
23 Jan - 01:20:04 10° SSE 01:22:41 14° SE 01:25:21 10° E night (unlit)
23 Jan - 02:58:34 10° SW 03:03:13 46° NW 03:07:56 10° NNE night (unlit)
23 Jan - 13:23:49 10° NNE 13:26:02 15° NE 13:28:12 10° E daylight
23 Jan - 15:03:17 10° WNW 15:06:24 24° SW 15:09:30 10° S daylight
24 Jan - 01:24:35 10° S 01:28:42 28° SE 01:32:55 10° ENE night (unlit)
24 Jan - 03:05:24 10° WSW 03:09:15 23° NW 03:13:08 10° N night (unlit)
24 Jan - 13:28:34 10° NNW 13:32:04 32° NE 13:35:29 10° ESE daylight
24 Jan - 15:11:29 10° WSW 15:12:25 11° SW 15:13:21 10° SW daylight
25 Jan - 01:30:00 10° SSW 01:34:41 58° SE 01:39:31 10° NE night (unlit)
25 Jan - 03:13:38 10° WNW 03:15:18 12° NW 03:17:01 10° NNW night (unlit)
25 Jan - 13:34:11 10° NW 13:38:05 83° NE 13:41:51 10° SE daylight
26 Jan - 01:35:55 10° SW 01:40:40 68° NW 01:45:34 10° NNE night (unlit)
26 Jan - 13:40:25 10° WNW 13:44:03 38° SW 13:47:36 10° SSE daylight
27 Jan - 00:02:49 10° S 00:06:10 19° SE 00:09:37 10° E night (unlit)
27 Jan - 01:42:23 10° WSW 01:46:41 33° NW 01:51:05 10° N night (unlit)
27 Jan - 12:06:34 10° N 12:09:41 21° NE 12:12:40 10° ESE daylight
27 Jan - 13:47:26 10° W 13:50:01 17° SW 13:52:34 10° S daylight
28 Jan - 00:07:49 10° SSW 00:12:09 38° SE 00:16:39 10° ENE night (unlit)
28 Jan - 01:49:38 10° W 01:52:44 17° NW 01:55:52 10° NNW night (unlit)
28 Jan - 12:11:49 10° NNW 12:15:42 49° NE 12:19:24 10° SE daylight
29 Jan - 00:13:27 10° SSW 00:18:07 81° SE 00:22:59 10° NE night (unlit)
29 Jan - 12:17:42 10° NW 12:21:41 65° SW 12:25:28 10° SSE daylight
29 Jan - 22:41:39 10° SSE 22:43:39 13° SE 22:45:42 10° E night (unlit)
30 Jan - 00:19:36 10° SW 00:24:07 48° NW 00:28:48 10° NNE night (unlit)
30 Jan - 10:44:53 10° NNE 10:47:12 15° NE 10:49:29 10° E daylight
30 Jan - 12:24:14 10° WNW 12:27:37 27° SW 12:30:55 10° S daylight
30 Jan - 22:45:51 10° S 22:49:38 25° SE 22:53:33 10° ENE night (unlit)
31 Jan - 00:26:22 10° WSW 00:30:08 24° NW 00:34:02 10° N night (unlit)
31 Jan - 10:49:34 10° NNW 10:53:16 32° NE 10:56:47 10° ESE daylight
31 Jan - 12:31:57 10° WSW 12:33:36 12° SW 12:35:14 10° SSW daylight
31 Jan - 22:51:10 10° SSW 22:55:36 52° SE 23:00:15 10° NE night (unlit)
01 Feb - 00:34:25 10° WNW 00:36:14 12° NW 00:38:02 10° NNW night (unlit)
01 Feb - 10:55:09 10° NNW 10:59:16 77° NE 11:03:10 10° SE daylight
01 Feb - 22:57:01 10° SW 23:01:33 73° NW 23:06:19 10° NNE night (unlit)
